CZ-6A DEB, 61312

Orbit data source: Space-Track

CZ-6A DEB, 61312 is space debris in LEO originally from a launch on Tue, 06 Aug 2024 UTC launched from the Taiyaun Space Center, China (TSC). Debris objects in space refer to the collection of defunct objects orbiting the Earth. Examples of debris include non-operational satellites, rocket bodies, and fragments generated from explosions, collisions, or faulty payload assembly.

Loading next visibility...
Identifier
61312, 2024-140TZ
Orbit
LEO
Country
Flag of CNCN / PRC
Related business
Manufacturer
SAST
Mission
Spacecraft
Bus & Motor
Unknown
Mass
Unknown
Launch date (UTC)
2024-08-06 (2 years ago)
Launch vehicle
Unknown
Launch site
Taiyaun Space Center, China (TSC)
Object type
Payload
Rocket body
Debris
Shape & HBR
Unknown shape, 0.1 m
Radar Cross Section
Medium (>0.1 m² and <1 m²)

Expand to show TLE details & history
Last TLE update: 17 hours ago

TLE from 17 hours ago
0 CZ-6A DEB
1 61312U 24140TZ  26171.25056624  .00002956  00000-0  11594-2 0  9995
2 61312  89.1099 282.7050 0073984 212.7198 146.9403 14.27697970 94390
Epoch: 2026-06-20T06:00Z
TLE epoch observation values (Epoch: 2026-06-20T06:00:48.923Z)
Latitude
-0.00006°
Longitude
-75.96673°
Altitude
847.131 km
Speed
7.406 km/s
True Right ascension
18h 50m 49s
True Declination
0° 00' 00"
Sunlit
Object was in full shadow at epoch
Visualization orbit readout
Latitude
Unknown
Longitude
Unknown
Altitude
Unknown
Speed
Unknown
Apparent Right ascension
Unknown
Apparent Declination
Unknown
Sunlit
N/A
Visualization observer readout
Local Sidereal Time
10:18:05
Azimuth
Unknown
Elevation
Unknown
Doppler factor
Unknown
Orbital elements
Apogee altitude
849.455 km
Perigee altitude
743.295 km
Semi-major axis
7,174.512 km
Eccentricity
0.0074
Inclination
89.1099°
RAAN
282.705°
Arg. of periapsis
212.7198°
True anomaly
147.39922°
Mean anomaly
146.9403°
Eccentric anomaly
147.17011°
Mean motion
3.57153 °/min
Orbital period
100.8 mins
BSTAR
0.0011594
Loading maneuver chart data...
Computing Atmospheric mass density...
Loading historical data...
Loading historical data...
Loading historical data...
Loading historical data...
Loading historical data...
Loading historical data...
Loading historical data...

Documentation

Showing up to 5 results
|